Time,TemperatureF,DewpointF,PressureIn,WindDirection,WindDirectionDegrees,WindSpeedMPH,WindSpeedGustMPH,Humidity,HourlyPrecipIn,Conditions,Clouds,dailyrainin,SoftwareType,DateUTC
2013-03-02 00:03:00,38.3,20.8,30.17,WNW,291,0.0,4.0,49,0.00,,---,0.00,VWS V14.00,2013-03-02 07:03:00,
2013-03-02 00:08:00,38.0,21.5,30.17,WNW,291,3.0,4.0,51,0.00,,---,0.00,VWS V14.00,2013-03-02 07:08:00,
2013-03-02 00:13:00,38.7,21.7,30.17,WNW,291,1.0,4.0,50,0.00,,---,0.00,VWS V14.00,2013-03-02 07:13:00,
2013-03-02 00:19:00,39.5,21.9,30.17,WNW,291,0.0,2.0,49,0.00,,---,0.00,VWS V14.00,2013-03-02 07:19:00,
2013-03-02 00:24:00,39.1,21.6,30.17,WNW,291,0.0,2.0,49,0.00,,---,0.00,VWS V14.00,2013-03-02 07:24:00,
2013-03-02 00:29:00,39.4,21.4,30.17,WNW,291,0.0,0.0,48,0.00,,---,0.00,VWS V14.00,2013-03-02 07:29:00,
2013-03-02 00:34:00,40.2,21.1,30.17,WNW,291,0.0,2.0,46,0.00,,---,0.00,VWS V14.00,2013-03-02 07:34:00,
2013-03-02 00:39:00,40.9,21.2,30.17,West,271,3.0,6.0,45,0.00,,---,0.00,VWS V14.00,2013-03-02 07:39:00,
2013-03-02 00:44:00,40.1,21.5,30.17,West,269,5.0,6.0,47,0.00,,---,0.00,VWS V14.00,2013-03-02 07:44:00,
2013-03-02 00:49:00,40.2,21.1,30.17,West,261,5.0,6.0,46,0.00,,---,0.00,VWS V14.00,2013-03-02 07:49:00,
2013-03-02 00:54:00,40.9,21.2,30.17,West,259,6.0,7.0,45,0.00,,---,0.00,VWS V14.00,2013-03-02 07:54:00,
2013-03-02 00:59:00,41.1,20.9,30.17,WSW,252,4.0,6.0,44,0.00,,---,0.00,VWS V14.00,2013-03-02 07:59:00,
2013-03-02 01:04:00,41.0,20.8,30.17,WSW,252,3.0,6.0,44,0.00,,---,0.00,VWS V14.00,2013-03-02 08:04:00,
2013-03-02 01:09:00,41.0,20.8,30.17,WSW,247,5.0,7.0,44,0.00,,---,0.00,VWS V14.00,2013-03-02 08:09:00,
2013-03-02 01:14:00,40.9,21.2,30.17,WSW,249,4.0,7.0,45,0.00,,---,0.00,VWS V14.00,2013-03-02 08:14:00,
2013-03-02 01:20:00,40.9,20.7,30.17,WSW,237,3.0,5.0,44,0.00,,---,0.00,VWS V14.00,2013-03-02 08:20:00,
2013-03-02 01:25:00,41.0,20.8,30.17,SW,231,2.0,6.0,44,0.00,,---,0.00,VWS V14.00,2013-03-02 08:25:00,
2013-03-02 01:30:00,41.3,21.0,30.17,SW,232,3.0,5.0,44,0.00,,---,0.00,VWS V14.00,2013-03-02 08:30:00,
2013-03-02 01:35:00,41.5,20.7,30.17,WSW,238,4.0,5.0,43,0.00,,---,0.00,VWS V14.00,2013-03-02 08:35:00,
2013-03-02 01:40:00,41.6,20.8,30.17,WSW,237,1.0,4.0,43,0.00,,---,0.00,VWS V14.00,2013-03-02 08:40:00,
2013-03-02 01:45:00,41.8,20.4,30.17,WSW,238,2.0,3.0,42,0.00,,---,0.00,VWS V14.00,2013-03-02 08:45:00,
2013-03-02 01:50:00,41.5,20.7,30.17,SW,235,4.0,4.0,43,0.00,,---,0.00,VWS V14.00,2013-03-02 08:50:00,
2013-03-02 01:55:00,41.4,20.6,30.16,SW,228,2.0,4.0,43,0.00,,---,0.00,VWS V14.00,2013-03-02 08:55:00,
2013-03-02 02:01:00,40.9,20.7,30.17,WSW,252,2.0,5.0,44,0.00,,---,0.00,VWS V14.00,2013-03-02 09:01:00,
2013-03-02 02:06:00,41.1,20.9,30.16,WSW,252,1.0,3.0,44,0.00,,---,0.00,VWS V14.00,2013-03-02 09:06:00,
2013-03-02 02:11:00,40.6,20.9,30.16,WSW,252,3.0,3.0,45,0.00,,---,0.00,VWS V14.00,2013-03-02 09:11:00,
2013-03-02 02:16:00,40.6,20.9,30.16,SW,229,0.0,0.0,45,0.00,,---,0.00,VWS V14.00,2013-03-02 09:16:00,
2013-03-02 02:21:00,39.7,20.6,30.16,SW,233,0.0,0.0,46,0.00,,---,0.00,VWS V14.00,2013-03-02 09:21:00,
2013-03-02 02:26:00,39.2,20.7,30.16,WNW,283,0.0,2.0,47,0.00,,---,0.00,VWS V14.00,2013-03-02 09:26:00,
2013-03-02 02:31:00,38.3,20.8,30.15,West,281,3.0,3.0,49,0.00,,---,0.00,VWS V14.00,2013-03-02 09:31:00,
2013-03-02 02:36:00,39.4,21.4,30.15,West,281,0.0,0.0,48,0.00,,---,0.00,VWS V14.00,2013-03-02 09:36:00,
2013-03-02 02:41:00,39.5,21.0,30.15,West,281,0.0,2.0,47,0.00,,---,0.00,VWS V14.00,2013-03-02 09:41:00,
2013-03-02 02:46:00,39.7,21.1,30.15,West,281,0.0,0.0,47,0.00,,---,0.00,VWS V14.00,2013-03-02 09:46:00,
2013-03-02 02:51:00,39.2,21.2,30.15,West,281,0.0,0.0,48,0.00,,---,0.00,VWS V14.00,2013-03-02 09:51:00,
2013-03-02 02:56:00,38.9,20.9,30.15,West,281,0.0,1.0,48,0.00,,---,0.00,VWS V14.00,2013-03-02 09:56:00,
2013-03-02 03:01:00,39.0,21.0,30.15,West,281,0.0,1.0,48,0.00,,---,0.00,VWS V14.00,2013-03-02 10:01:00,
2013-03-02 03:07:00,38.5,21.0,30.15,West,281,0.0,1.0,49,0.00,,---,0.00,VWS V14.00,2013-03-02 10:07:00,
2013-03-02 03:13:00,38.0,21.0,30.14,West,281,0.0,2.0,50,0.00,,---,0.00,VWS V14.00,2013-03-02 10:13:00,
2013-03-02 03:18:00,38.2,21.2,30.14,West,281,0.0,1.0,50,0.00,,---,0.00,VWS V14.00,2013-03-02 10:18:00,
2013-03-02 03:23:00,39.2,21.2,30.14,West,281,0.0,2.0,48,0.00,,---,0.00,VWS V14.00,2013-03-02 10:23:00,
2013-03-02 03:28:00,39.5,21.0,30.14,WNW,291,0.0,3.0,47,0.00,,---,0.00,VWS V14.00,2013-03-02 10:28:00,
2013-03-02 03:34:00,39.5,21.5,30.14,West,277,0.0,4.0,48,0.00,,---,0.00,VWS V14.00,2013-03-02 10:34:00,
2013-03-02 03:39:00,39.5,21.0,30.14,SSW,192,0.0,0.0,47,0.00,,---,0.00,VWS V14.00,2013-03-02 10:39:00,
2013-03-02 03:44:00,40.2,21.1,30.14,SSW,193,0.0,2.0,46,0.00,,---,0.00,VWS V14.00,2013-03-02 10:44:00,
2013-03-02 03:49:00,40.3,21.2,30.14,SSW,193,0.0,1.0,46,0.00,,---,0.00,VWS V14.00,2013-03-02 10:49:00,
2013-03-02 03:54:00,40.7,21.5,30.14,SW,215,0.0,1.0,46,0.00,,---,0.00,VWS V14.00,2013-03-02 10:54:00,
2013-03-02 04:00:00,40.3,21.2,30.15,SW,227,0.0,0.0,46,0.00,,---,0.00,VWS V14.00,2013-03-02 11:00:00,
2013-03-02 04:05:00,40.4,21.8,30.14,SW,226,0.0,0.0,47,0.00,,---,0.00,VWS V14.00,2013-03-02 11:05:00,
2013-03-02 04:10:00,40.2,21.1,30.14,SW,226,0.0,2.0,46,0.00,,---,0.00,VWS V14.00,2013-03-02 11:10:00,
2013-03-02 04:15:00,40.7,21.5,30.14,SW,226,0.0,2.0,46,0.00,,---,0.00,VWS V14.00,2013-03-02 11:15:00,
2013-03-02 04:20:00,40.9,21.2,30.14,SW,229,2.0,4.0,45,0.00,,---,0.00,VWS V14.00,2013-03-02 11:20:00,
2013-03-02 04:25:00,40.6,21.5,30.14,SW,229,0.0,4.0,46,0.00,,---,0.00,VWS V14.00,2013-03-02 11:25:00,
2013-03-02 04:30:00,40.2,21.6,30.14,West,263,3.0,6.0,47,0.00,,---,0.00,VWS V14.00,2013-03-02 11:30:00,
2013-03-02 04:35:00,40.1,21.0,30.14,West,262,0.0,6.0,46,0.00,,---,0.00,VWS V14.00,2013-03-02 11:35:00,
2013-03-02 04:40:00,40.2,21.6,30.14,West,262,0.0,1.0,47,0.00,,---,0.00,VWS V14.00,2013-03-02 11:40:00,
2013-03-02 04:45:00,40.2,21.1,30.14,West,262,0.0,2.0,46,0.00,,---,0.00,VWS V14.00,2013-03-02 11:45:00,
2013-03-02 04:50:00,40.2,21.1,30.14,West,262,0.0,4.0,46,0.00,,---,0.00,VWS V14.00,2013-03-02 11:50:00,
2013-03-02 04:55:00,40.2,21.1,30.14,West,261,0.0,0.0,46,0.00,,---,0.00,VWS V14.00,2013-03-02 11:55:00,
2013-03-02 05:00:00,40.2,21.1,30.14,SSW,213,2.0,5.0,46,0.00,,---,0.00,VWS V14.00,2013-03-02 12:00:00,
2013-03-02 05:05:00,38.9,20.9,30.14,SSW,208,2.0,3.0,48,0.00,,---,0.00,VWS V14.00,2013-03-02 12:05:00,
2013-03-02 05:10:00,39.7,21.6,30.14,SSW,209,1.0,5.0,48,0.00,,---,0.00,VWS V14.00,2013-03-02 12:10:00,
2013-03-02 05:15:00,39.7,21.1,30.13,SW,225,2.0,2.0,47,0.00,,---,0.00,VWS V14.00,2013-03-02 12:15:00,
2013-03-02 05:20:00,40.0,21.4,30.14,SW,223,2.0,6.0,47,0.00,,---,0.00,VWS V14.00,2013-03-02 12:20:00,
2013-03-02 05:25:00,38.5,21.0,30.13,SW,223,3.0,5.0,49,0.00,,---,0.00,VWS V14.00,2013-03-02 12:25:00,
2013-03-02 05:31:00,38.5,21.5,30.13,SW,232,3.0,8.0,50,0.00,,---,0.00,VWS V14.00,2013-03-02 12:31:00,
2013-03-02 05:36:00,39.2,21.2,30.13,SW,217,4.0,6.0,48,0.00,,---,0.00,VWS V14.00,2013-03-02 12:36:00,
2013-03-02 05:41:00,39.6,21.5,30.13,SW,221,6.0,8.0,48,0.00,,---,0.00,VWS V14.00,2013-03-02 12:41:00,
2013-03-02 05:46:00,39.6,21.5,30.13,SW,227,6.0,6.0,48,0.00,,---,0.00,VWS V14.00,2013-03-02 12:46:00,
2013-03-02 05:51:00,39.5,21.5,30.13,SW,229,7.0,7.0,48,0.00,,---,0.00,VWS V14.00,2013-03-02 12:51:00,
2013-03-02 05:56:00,39.6,21.0,30.13,SSW,213,5.0,7.0,47,0.00,,---,0.00,VWS V14.00,2013-03-02 12:56:00,
2013-03-02 06:01:00,39.7,21.1,30.14,SW,228,4.0,7.0,47,0.00,,---,0.00,VWS V14.00,2013-03-02 13:01:00,
2013-03-02 06:06:00,39.6,21.0,30.14,SW,219,5.0,7.0,47,0.00,,---,0.00,VWS V14.00,2013-03-02 13:06:00,
2013-03-02 06:11:00,39.8,21.2,30.14,SW,225,5.0,7.0,47,0.00,,---,0.00,VWS V14.00,2013-03-02 13:11:00,
2013-03-02 06:16:00,39.7,21.6,30.14,WSW,237,5.0,6.0,48,0.00,,---,0.00,VWS V14.00,2013-03-02 13:16:00,
2013-03-02 06:21:00,39.4,21.4,30.14,WSW,249,0.0,6.0,48,0.00,,---,0.00,VWS V14.00,2013-03-02 13:21:00,
2013-03-02 06:26:00,39.4,21.4,30.14,SW,215,3.0,5.0,48,0.00,,---,0.00,VWS V14.00,2013-03-02 13:26:00,
2013-03-02 06:31:00,39.6,21.5,30.14,SW,236,0.0,6.0,48,0.00,,---,0.00,VWS V14.00,2013-03-02 13:31:00,
2013-03-02 06:36:00,39.5,21.5,30.14,SW,216,5.0,6.0,48,0.00,,---,0.00,VWS V14.00,2013-03-02 13:36:00,
2013-03-02 06:41:00,39.9,21.3,30.14,SW,215,0.0,6.0,47,0.00,,---,0.00,VWS V14.00,2013-03-02 13:41:00,
2013-03-02 06:46:00,39.8,21.7,30.14,SW,221,5.0,6.0,48,0.00,,---,0.00,VWS V14.00,2013-03-02 13:46:00,
2013-03-02 06:51:00,40.0,21.4,30.14,WSW,245,6.0,9.0,47,0.00,,---,0.00,VWS V14.00,2013-03-02 13:51:00,
2013-03-02 06:56:00,40.6,22.0,30.14,SW,215,5.0,8.0,47,0.00,,---,0.00,VWS V14.00,2013-03-02 13:56:00,
2013-03-02 07:01:00,40.9,22.2,30.14,WSW,250,8.0,10.0,47,0.00,,---,0.00,VWS V14.00,2013-03-02 14:01:00,
2013-03-02 07:06:00,41.5,22.8,30.14,SSW,207,4.0,8.0,47,0.00,,---,0.00,VWS V14.00,2013-03-02 14:06:00,
2013-03-02 07:11:00,41.7,21.9,30.14,SSW,203,3.0,9.0,45,0.00,,---,0.00,VWS V14.00,2013-03-02 14:11:00,
2013-03-02 07:16:00,41.8,22.0,30.14,SSW,205,3.0,5.0,45,0.00,,---,0.00,VWS V14.00,2013-03-02 14:16:00,
2013-03-02 07:22:00,42.3,22.5,30.13,SSW,205,4.0,7.0,45,0.00,,---,0.00,VWS V14.00,2013-03-02 14:22:00,
2013-03-02 07:27:00,42.7,22.3,30.13,SSW,211,3.0,6.0,44,0.00,,---,0.00,VWS V14.00,2013-03-02 14:27:00,
2013-03-02 07:32:00,42.6,22.2,30.14,SSW,201,2.0,6.0,44,0.00,,---,0.00,VWS V14.00,2013-03-02 14:32:00,
2013-03-02 07:37:00,42.4,22.6,30.13,SSW,210,5.0,6.0,45,0.00,,---,0.00,VWS V14.00,2013-03-02 14:37:00,
2013-03-02 07:42:00,42.1,22.3,30.13,SW,214,3.0,6.0,45,0.00,,---,0.00,VWS V14.00,2013-03-02 14:42:00,
2013-03-02 07:47:00,42.1,21.8,30.13,WSW,247,1.0,3.0,44,0.00,,---,0.00,VWS V14.00,2013-03-02 14:47:00,
2013-03-02 07:52:00,42.4,22.0,30.13,WSW,247,0.0,3.0,44,0.00,,---,0.00,VWS V14.00,2013-03-02 14:52:00,
2013-03-02 07:57:00,43.2,23.3,30.13,SSW,208,4.0,4.0,45,0.00,,---,0.00,VWS V14.00,2013-03-02 14:57:00,
2013-03-02 08:02:00,44.0,23.5,30.13,SSW,208,1.0,4.0,44,0.00,,---,0.00,VWS V14.00,2013-03-02 15:02:00,
2013-03-02 08:07:00,44.5,24.5,30.13,South,178,0.0,6.0,45,0.00,,---,0.00,VWS V14.00,2013-03-02 15:07:00,
2013-03-02 08:12:00,43.8,24.4,30.13,North,5,3.0,6.0,46,0.00,,---,0.00,VWS V14.00,2013-03-02 15:12:00,
2013-03-02 08:17:00,43.5,23.6,30.13,North,5,0.0,0.0,45,0.00,,---,0.00,VWS V14.00,2013-03-02 15:17:00,
2013-03-02 08:22:00,43.7,24.3,30.13,North,9,1.0,3.0,46,0.00,,---,0.00,VWS V14.00,2013-03-02 15:22:00,
2013-03-02 08:27:00,44.1,23.6,30.13,North,9,0.0,0.0,44,0.00,,---,0.00,VWS V14.00,2013-03-02 15:27:00,
2013-03-02 08:32:00,43.8,25.4,30.13,NNE,13,1.0,2.0,48,0.00,,---,0.00,VWS V14.00,2013-03-02 15:32:00,
2013-03-02 08:38:00,44.4,24.4,30.13,NNE,13,0.0,2.0,45,0.00,,---,0.00,VWS V14.00,2013-03-02 15:38:00,
2013-03-02 08:43:00,44.5,26.5,30.13,NNE,17,0.0,3.0,49,0.00,,---,0.00,VWS V14.00,2013-03-02 15:43:00,
2013-03-02 08:48:00,45.3,24.7,30.12,NNE,18,0.0,1.0,44,0.00,,---,0.00,VWS V14.00,2013-03-02 15:48:00,
2013-03-02 08:53:00,46.5,24.1,30.13,NNE,19,0.0,1.0,41,0.00,,---,0.00,VWS V14.00,2013-03-02 15:53:00,
2013-03-02 08:58:00,46.9,26.1,30.12,NNE,19,0.0,1.0,44,0.00,,---,0.00,VWS V14.00,2013-03-02 15:58:00,
2013-03-02 09:03:00,46.8,24.4,30.12,NNE,28,1.0,1.0,41,0.00,,---,0.00,VWS V14.00,2013-03-02 16:03:00,
2013-03-02 09:08:00,47.5,25.6,30.12,NE,52,1.0,2.0,42,0.00,,---,0.00,VWS V14.00,2013-03-02 16:08:00,
2013-03-02 09:13:00,47.4,26.0,30.12,NE,36,0.0,5.0,43,0.00,,---,0.00,VWS V14.00,2013-03-02 16:13:00,
2013-03-02 09:18:00,47.0,26.2,30.12,NE,40,3.0,5.0,44,0.00,,---,0.00,VWS V14.00,2013-03-02 16:18:00,
2013-03-02 09:23:00,46.7,26.0,30.12,NE,40,0.0,5.0,44,0.00,,---,0.00,VWS V14.00,2013-03-02 16:23:00,
2013-03-02 09:28:00,46.5,26.3,30.12,NNE,26,5.0,6.0,45,0.00,,---,0.00,VWS V14.00,2013-03-02 16:28:00,
2013-03-02 09:33:00,46.3,25.6,30.12,NNE,26,0.0,6.0,44,0.00,,---,0.00,VWS V14.00,2013-03-02 16:33:00,
2013-03-02 09:38:00,46.2,26.0,30.11,NNE,26,0.0,3.0,45,0.00,,---,0.00,VWS V14.00,2013-03-02 16:38:00,
2013-03-02 09:43:00,46.4,26.2,30.11,NNE,26,4.0,4.0,45,0.00,,---,0.00,VWS V14.00,2013-03-02 16:43:00,
2013-03-02 09:49:00,46.7,26.0,30.11,NNE,26,0.0,4.0,44,0.00,,---,0.00,VWS V14.00,2013-03-02 16:49:00,
2013-03-02 09:54:00,47.2,25.3,30.11,NNE,31,3.0,4.0,42,0.00,,---,0.00,VWS V14.00,2013-03-02 16:54:00,
2013-03-02 09:59:00,47.0,26.8,30.11,NNE,17,4.0,7.0,45,0.00,,---,0.00,VWS V14.00,2013-03-02 16:59:00,
2013-03-02 10:04:00,46.9,27.2,30.11,NNE,19,2.0,7.0,46,0.00,,---,0.00,VWS V14.00,2013-03-02 17:04:00,
2013-03-02 10:09:00,46.9,27.2,30.10,NNE,22,1.0,4.0,46,0.00,,---,0.00,VWS V14.00,2013-03-02 17:09:00,
2013-03-02 10:14:00,46.9,27.7,30.10,NNE,22,0.0,4.0,47,0.00,,---,0.00,VWS V14.00,2013-03-02 17:14:00,
2013-03-02 10:19:00,47.7,28.0,30.10,NNE,22,3.0,3.0,46,0.00,,---,0.00,VWS V14.00,2013-03-02 17:19:00,
2013-03-02 10:24:00,48.2,27.9,30.10,NNE,31,2.0,4.0,45,0.00,,---,0.00,VWS V14.00,2013-03-02 17:24:00,
2013-03-02 10:29:00,48.8,27.3,30.10,NNE,32,0.0,4.0,43,0.00,,---,0.00,VWS V14.00,2013-03-02 17:29:00,
2013-03-02 10:34:00,49.0,28.6,30.10,NNE,24,6.0,7.0,45,0.00,,---,0.00,VWS V14.00,2013-03-02 17:34:00,
2013-03-02 10:39:00,48.3,27.4,30.10,NNE,22,5.0,7.0,44,0.00,,---,0.00,VWS V14.00,2013-03-02 17:39:00,
2013-03-02 10:44:00,47.6,27.3,30.10,NE,34,4.0,7.0,45,0.00,,---,0.00,VWS V14.00,2013-03-02 17:44:00,
2013-03-02 10:49:00,47.4,27.7,30.10,NNE,22,5.0,7.0,46,0.00,,---,0.00,VWS V14.00,2013-03-02 17:49:00,
2013-03-02 10:54:00,47.9,27.0,30.10,NNE,26,4.0,7.0,44,0.00,,---,0.00,VWS V14.00,2013-03-02 17:54:00,
2013-03-02 10:59:00,47.9,26.5,30.10,NE,36,6.0,8.0,43,0.00,,---,0.00,VWS V14.00,2013-03-02 17:59:00,
2013-03-02 11:04:00,47.8,27.0,30.10,NNE,31,5.0,8.0,44,0.00,,---,0.00,VWS V14.00,2013-03-02 18:04:00,
2013-03-02 11:09:00,48.3,26.9,30.10,NNE,30,2.0,5.0,43,0.00,,---,0.00,VWS V14.00,2013-03-02 18:09:00,
2013-03-02 11:14:00,48.5,26.5,30.09,NE,35,4.0,6.0,42,0.00,,---,0.00,VWS V14.00,2013-03-02 18:14:00,
2013-03-02 11:20:00,48.9,26.8,30.09,NE,36,0.0,4.0,42,0.00,,---,0.00,VWS V14.00,2013-03-02 18:20:00,
2013-03-02 11:25:00,49.5,26.2,30.09,NNE,27,2.0,5.0,40,0.00,,---,0.00,VWS V14.00,2013-03-02 18:25:00,
2013-03-02 11:30:00,50.1,24.9,30.09,NNE,27,0.0,4.0,37,0.00,,---,0.00,VWS V14.00,2013-03-02 18:30:00,
2013-03-02 11:35:00,50.6,24.0,30.09,NNE,30,0.0,4.0,35,0.00,,---,0.00,VWS V14.00,2013-03-02 18:35:00,
2013-03-02 11:40:00,51.6,25.5,30.08,NNE,32,1.0,1.0,36,0.00,,---,0.00,VWS V14.00,2013-03-02 18:40:00,
2013-03-02 11:45:00,52.6,24.3,30.08,East,101,1.0,6.0,33,0.00,,---,0.00,VWS V14.00,2013-03-02 18:45:00,
2013-03-02 11:50:00,52.7,25.1,30.07,ENE,73,5.0,6.0,34,0.00,,---,0.00,VWS V14.00,2013-03-02 18:50:00,
2013-03-02 11:55:00,52.4,23.4,30.07,East,98,5.0,5.0,32,0.00,,---,0.00,VWS V14.00,2013-03-02 18:55:00,
2013-03-02 12:00:00,52.4,23.4,30.07,ESE,121,5.0,7.0,32,0.00,,---,0.00,VWS V14.00,2013-03-02 19:00:00,
2013-03-02 12:05:00,52.1,23.2,30.06,SE,132,4.0,7.0,32,0.00,,---,0.00,VWS V14.00,2013-03-02 19:05:00,
2013-03-02 12:10:00,51.6,23.5,30.06,ESE,118,4.0,8.0,33,0.00,,---,0.00,VWS V14.00,2013-03-02 19:10:00,
2013-03-02 12:16:00,51.8,22.1,30.06,ESE,123,4.0,4.0,31,0.00,,---,0.00,VWS V14.00,2013-03-02 19:16:00,
2013-03-02 12:21:00,51.6,23.5,30.05,SE,135,0.0,8.0,33,0.00,,---,0.00,VWS V14.00,2013-03-02 19:21:00,
2013-03-02 12:26:00,51.4,24.0,30.05,ESE,113,5.0,5.0,34,0.00,,---,0.00,VWS V14.00,2013-03-02 19:26:00,
2013-03-02 12:31:00,51.0,25.0,30.04,SE,124,4.0,7.0,36,0.00,,---,0.00,VWS V14.00,2013-03-02 19:31:00,
2013-03-02 12:36:00,50.8,25.5,30.04,SE,146,5.0,6.0,37,0.00,,---,0.00,VWS V14.00,2013-03-02 19:36:00,
2013-03-02 12:41:00,50.6,24.0,30.03,SE,144,4.0,7.0,35,0.00,,---,0.00,VWS V14.00,2013-03-02 19:41:00,
2013-03-02 12:46:00,50.4,24.5,30.03,SE,140,5.0,7.0,36,0.00,,---,0.00,VWS V14.00,2013-03-02 19:46:00,
2013-03-02 12:51:00,50.5,24.6,30.03,ESE,114,2.0,7.0,36,0.00,,---,0.00,VWS V14.00,2013-03-02 19:51:00,
2013-03-02 12:56:00,50.7,24.1,30.02,ESE,117,2.0,4.0,35,0.00,,---,0.00,VWS V14.00,2013-03-02 19:56:00,
2013-03-02 13:01:00,51.1,27.0,30.02,ESE,102,6.0,7.0,39,0.00,,---,0.00,VWS V14.00,2013-03-02 20:01:00,
2013-03-02 13:07:00,51.4,26.0,30.01,SE,141,8.0,10.0,37,0.00,,---,0.00,VWS V14.00,2013-03-02 20:07:00,
2013-03-02 13:12:00,50.9,24.2,30.01,SSE,155,8.0,10.0,35,0.00,,---,0.00,VWS V14.00,2013-03-02 20:12:00,
2013-03-02 13:17:00,50.8,24.1,30.01,SSE,165,6.0,8.0,35,0.00,,---,0.00,VWS V14.00,2013-03-02 20:17:00,
2013-03-02 13:22:00,51.1,23.7,30.00,SSE,153,6.0,10.0,34,0.00,,---,0.00,VWS V14.00,2013-03-02 20:22:00,
2013-03-02 13:27:00,51.5,24.1,30.00,SE,130,4.0,9.0,34,0.00,,---,0.00,VWS V14.00,2013-03-02 20:27:00,
2013-03-02 13:32:00,51.4,24.7,30.00,SE,139,6.0,9.0,35,0.00,,---,0.00,VWS V14.00,2013-03-02 20:32:00,
2013-03-02 13:37:00,51.3,24.6,30.00,SSE,168,5.0,6.0,35,0.00,,---,0.00,VWS V14.00,2013-03-02 20:37:00,
2013-03-02 13:42:00,51.6,24.9,30.00,SSE,163,0.0,9.0,35,0.00,,---,0.00,VWS V14.00,2013-03-02 20:42:00,
2013-03-02 13:47:00,51.7,25.6,29.99,SSE,151,1.0,8.0,36,0.00,,---,0.00,VWS V14.00,2013-03-02 20:47:00,
2013-03-02 13:53:00,51.9,25.8,29.99,SSE,165,0.0,8.0,36,0.00,,---,0.00,VWS V14.00,2013-03-02 20:53:00,
2013-03-02 13:58:00,52.1,26.6,29.99,SE,140,2.0,7.0,37,0.00,,---,0.00,VWS V14.00,2013-03-02 20:58:00,
2013-03-02 14:03:00,52.4,26.2,29.99,SSE,157,6.0,7.0,36,0.00,,---,0.00,VWS V14.00,2013-03-02 21:03:00,
2013-03-02 14:08:00,52.3,25.5,29.99,South,176,4.0,6.0,35,0.00,,---,0.00,VWS V14.00,2013-03-02 21:08:00,
2013-03-02 14:13:00,52.4,25.6,29.98,SSE,160,4.0,7.0,35,0.00,,---,0.00,VWS V14.00,2013-03-02 21:13:00,
2013-03-02 14:18:00,52.8,25.2,29.98,SSE,165,2.0,6.0,34,0.00,,---,0.00,VWS V14.00,2013-03-02 21:18:00,
2013-03-02 14:23:00,53.4,25.0,29.98,SSW,201,1.0,7.0,33,0.00,,---,0.00,VWS V14.00,2013-03-02 21:23:00,
2013-03-02 14:28:00,53.8,24.6,29.97,South,170,5.0,6.0,32,0.00,,---,0.00,VWS V14.00,2013-03-02 21:28:00,
2013-03-02 14:34:00,53.6,26.6,29.97,ESE,119,5.0,7.0,35,0.00,,---,0.00,VWS V14.00,2013-03-02 21:34:00,
2013-03-02 14:39:00,53.5,29.8,29.97,ESE,112,4.0,6.0,40,0.00,,---,0.00,VWS V14.00,2013-03-02 21:39:00,
2013-03-02 14:44:00,53.3,27.7,29.97,East,94,1.0,6.0,37,0.00,,---,0.00,VWS V14.00,2013-03-02 21:44:00,
2013-03-02 14:49:00,52.6,29.0,29.97,East,93,1.0,4.0,40,0.00,,---,0.00,VWS V14.00,2013-03-02 21:49:00,
2013-03-02 14:54:00,52.1,28.5,29.97,East,101,0.0,5.0,40,0.00,,---,0.00,VWS V14.00,2013-03-02 21:54:00,
2013-03-02 14:59:00,51.9,30.1,29.97,East,92,1.0,5.0,43,0.00,,---,0.00,VWS V14.00,2013-03-02 21:59:00,
2013-03-02 15:04:00,52.2,29.2,29.97,East,91,0.0,5.0,41,0.00,,---,0.00,VWS V14.00,2013-03-02 22:04:00,
2013-03-02 15:09:00,51.9,29.0,29.97,East,91,0.0,2.0,41,0.00,,---,0.00,VWS V14.00,2013-03-02 22:09:00,
2013-03-02 15:14:00,51.7,29.4,29.97,ENE,57,3.0,5.0,42,0.00,,---,0.00,VWS V14.00,2013-03-02 22:14:00,
2013-03-02 15:19:00,51.6,29.3,29.97,ENE,57,0.0,3.0,42,0.00,,---,0.00,VWS V14.00,2013-03-02 22:19:00,
2013-03-02 15:24:00,51.6,28.7,29.97,ENE,57,0.0,3.0,41,0.00,,---,0.00,VWS V14.00,2013-03-02 22:24:00,
2013-03-02 15:29:00,51.7,28.8,29.97,ENE,57,1.0,3.0,41,0.00,,---,0.00,VWS V14.00,2013-03-02 22:29:00,
2013-03-02 15:35:00,52.4,28.8,29.97,ENE,59,0.0,3.0,40,0.00,,---,0.00,VWS V14.00,2013-03-02 22:35:00,
2013-03-02 15:40:00,52.8,28.5,29.97,South,171,2.0,5.0,39,0.00,,---,0.00,VWS V14.00,2013-03-02 22:40:00,
2013-03-02 15:45:00,52.6,28.4,29.97,South,177,0.0,5.0,39,0.00,,---,0.00,VWS V14.00,2013-03-02 22:45:00,
2013-03-02 15:50:00,52.5,30.1,29.97,SE,145,4.0,5.0,42,0.00,,---,0.00,VWS V14.00,2013-03-02 22:50:00,
2013-03-02 15:55:00,52.3,30.5,29.97,SE,145,0.0,5.0,43,0.00,,---,0.00,VWS V14.00,2013-03-02 22:55:00,
2013-03-02 16:00:00,51.7,29.4,29.96,SE,145,0.0,2.0,42,0.00,,---,0.00,VWS V14.00,2013-03-02 23:00:00,
2013-03-02 16:05:00,51.2,30.0,29.96,SE,145,0.0,0.0,44,0.00,,---,0.00,VWS V14.00,2013-03-02 23:05:00,
2013-03-02 16:10:00,51.0,29.9,29.96,SE,145,0.0,1.0,44,0.00,,---,0.00,VWS V14.00,2013-03-02 23:10:00,
2013-03-02 16:15:00,50.9,29.8,29.96,SE,145,0.0,0.0,44,0.00,,---,0.00,VWS V14.00,2013-03-02 23:15:00,
2013-03-02 16:20:00,51.0,29.9,29.96,SE,145,0.0,0.0,44,0.00,,---,0.00,VWS V14.00,2013-03-02 23:20:00,
2013-03-02 16:25:00,51.2,29.5,29.95,SE,145,0.0,0.0,43,0.00,,---,0.00,VWS V14.00,2013-03-02 23:25:00,
2013-03-02 16:30:00,51.1,29.4,29.95,SSE,148,0.0,2.0,43,0.00,,---,0.00,VWS V14.00,2013-03-02 23:30:00,
2013-03-02 16:36:00,51.1,30.0,29.95,SSE,164,0.0,1.0,44,0.00,,---,0.00,VWS V14.00,2013-03-02 23:36:00,
2013-03-02 16:41:00,51.2,28.9,29.95,SSW,193,0.0,4.0,42,0.00,,---,0.00,VWS V14.00,2013-03-02 23:41:00,
2013-03-02 16:46:00,51.3,28.4,29.95,SSW,193,0.0,0.0,41,0.00,,---,0.00,VWS V14.00,2013-03-02 23:46:00,
2013-03-02 16:51:00,51.2,30.0,29.95,SSW,196,3.0,3.0,44,0.00,,---,0.00,VWS V14.00,2013-03-02 23:51:00,
2013-03-02 16:56:00,51.0,29.3,29.95,SW,219,5.0,5.0,43,0.00,,---,0.00,VWS V14.00,2013-03-02 23:56:00,
2013-03-02 17:01:00,51.0,29.3,29.95,WSW,240,1.0,5.0,43,0.00,,---,0.00,VWS V14.00,2013-03-03 00:01:00,
2013-03-02 17:06:00,50.9,28.6,29.95,WSW,242,0.0,0.0,42,0.00,,---,0.00,VWS V14.00,2013-03-03 00:06:00,
2013-03-02 17:11:00,50.9,29.2,29.95,WSW,242,0.0,1.0,43,0.00,,---,0.00,VWS V14.00,2013-03-03 00:11:00,
2013-03-02 17:16:00,50.6,29.0,29.95,WSW,242,0.0,0.0,43,0.00,,---,0.00,VWS V14.00,2013-03-03 00:16:00,
2013-03-02 17:21:00,50.8,28.5,29.95,WSW,242,0.0,3.0,42,0.00,,---,0.00,VWS V14.00,2013-03-03 00:21:00,
2013-03-02 17:26:00,51.0,28.7,29.95,WSW,242,0.0,1.0,42,0.00,,---,0.00,VWS V14.00,2013-03-03 00:26:00,
2013-03-02 17:31:00,50.9,29.2,29.95,WSW,242,0.0,1.0,43,0.00,,---,0.00,VWS V14.00,2013-03-03 00:31:00,
2013-03-02 17:36:00,51.1,28.2,29.94,WSW,242,0.0,3.0,41,0.00,,---,0.00,VWS V14.00,2013-03-03 00:36:00,
2013-03-02 17:41:00,51.2,27.7,29.94,WSW,241,2.0,3.0,40,0.00,,---,0.00,VWS V14.00,2013-03-03 00:41:00,
2013-03-02 17:46:00,51.0,28.7,29.95,WSW,242,1.0,3.0,42,0.00,,---,0.00,VWS V14.00,2013-03-03 00:46:00,
2013-03-02 17:51:00,50.8,28.5,29.95,WSW,246,4.0,4.0,42,0.00,,---,0.00,VWS V14.00,2013-03-03 00:51:00,
2013-03-02 17:56:00,50.6,28.4,29.94,WSW,246,3.0,4.0,42,0.00,,---,0.00,VWS V14.00,2013-03-03 00:56:00,
2013-03-02 18:01:00,50.4,28.2,29.94,WSW,247,3.0,4.0,42,0.00,,---,0.00,VWS V14.00,2013-03-03 01:01:00,
2013-03-02 18:07:00,50.4,28.2,29.94,WSW,247,2.0,3.0,42,0.00,,---,0.00,VWS V14.00,2013-03-03 01:07:00,
2013-03-02 18:12:00,50.3,28.1,29.94,WSW,248,2.0,4.0,42,0.00,,---,0.00,VWS V14.00,2013-03-03 01:12:00,
2013-03-02 18:17:00,49.8,28.8,29.94,WSW,248,2.0,3.0,44,0.00,,---,0.00,VWS V14.00,2013-03-03 01:17:00,
2013-03-02 18:22:00,49.5,28.5,29.94,WSW,248,2.0,4.0,44,0.00,,---,0.00,VWS V14.00,2013-03-03 01:22:00,
2013-03-02 18:27:00,49.9,28.3,29.94,WSW,248,3.0,4.0,43,0.00,,---,0.00,VWS V14.00,2013-03-03 01:27:00,
2013-03-02 18:32:00,50.0,28.4,29.94,WSW,248,3.0,4.0,43,0.00,,---,0.00,VWS V14.00,2013-03-03 01:32:00,
2013-03-02 18:37:00,50.0,27.8,29.94,WSW,243,2.0,4.0,42,0.00,,---,0.00,VWS V14.00,2013-03-03 01:37:00,
2013-03-02 18:42:00,50.1,27.3,29.94,WSW,243,2.0,4.0,41,0.00,,---,0.00,VWS V14.00,2013-03-03 01:42:00,
2013-03-02 18:47:00,50.1,26.7,29.94,WSW,243,0.0,3.0,40,0.00,,---,0.00,VWS V14.00,2013-03-03 01:47:00,
2013-03-02 18:52:00,50.2,26.8,29.94,WSW,243,1.0,3.0,40,0.00,,---,0.00,VWS V14.00,2013-03-03 01:52:00,
2013-03-02 18:57:00,50.2,26.8,29.94,WSW,243,2.0,3.0,40,0.00,,---,0.00,VWS V14.00,2013-03-03 01:57:00,
2013-03-02 19:02:00,50.0,27.8,29.93,WSW,243,0.0,3.0,42,0.00,,---,0.00,VWS V14.00,2013-03-03 02:02:00,
2013-03-02 19:07:00,49.7,26.4,29.93,WSW,243,0.0,2.0,40,0.00,,---,0.00,VWS V14.00,2013-03-03 02:07:00,
2013-03-02 19:12:00,50.0,26.0,29.92,WSW,243,3.0,3.0,39,0.00,,---,0.00,VWS V14.00,2013-03-03 02:12:00,
2013-03-02 19:18:00,50.2,26.8,29.92,WSW,243,0.0,3.0,40,0.00,,---,0.00,VWS V14.00,2013-03-03 02:18:00,
2013-03-02 19:23:00,50.1,26.7,29.93,WSW,244,0.0,3.0,40,0.00,,---,0.00,VWS V14.00,2013-03-03 02:23:00,
2013-03-02 19:28:00,49.7,27.0,29.92,WSW,244,0.0,3.0,41,0.00,,---,0.00,VWS V14.00,2013-03-03 02:28:00,
2013-03-02 19:33:00,49.3,27.8,29.92,WSW,244,0.0,3.0,43,0.00,,---,0.00,VWS V14.00,2013-03-03 02:33:00,
2013-03-02 19:38:00,48.7,26.1,29.91,WSW,244,0.0,2.0,41,0.00,,---,0.00,VWS V14.00,2013-03-03 02:38:00,
2013-03-02 19:43:00,48.9,26.8,29.91,WSW,244,0.0,2.0,42,0.00,,---,0.00,VWS V14.00,2013-03-03 02:43:00,
2013-03-02 19:48:00,49.0,26.3,29.91,WSW,244,0.0,2.0,41,0.00,,---,0.00,VWS V14.00,2013-03-03 02:48:00,
2013-03-02 19:53:00,49.5,26.8,29.91,WSW,244,0.0,3.0,41,0.00,,---,0.00,VWS V14.00,2013-03-03 02:53:00,
2013-03-02 19:58:00,49.6,26.3,29.91,WSW,244,0.0,0.0,40,0.00,,---,0.00,VWS V14.00,2013-03-03 02:58:00,
2013-03-02 20:03:00,49.3,26.0,29.91,WSW,244,0.0,0.0,40,0.00,,---,0.00,VWS V14.00,2013-03-03 03:03:00,
2013-03-02 20:08:00,49.0,26.3,29.90,WSW,244,0.0,0.0,41,0.00,,---,0.00,VWS V14.00,2013-03-03 03:08:00,
2013-03-02 20:13:00,49.0,26.3,29.91,WSW,244,0.0,1.0,41,0.00,,---,0.00,VWS V14.00,2013-03-03 03:13:00,
2013-03-02 20:18:00,49.5,27.4,29.90,WSW,252,2.0,4.0,42,0.00,,---,0.00,VWS V14.00,2013-03-03 03:18:00,
2013-03-02 20:23:00,50.1,26.7,29.90,WSW,238,0.0,5.0,40,0.00,,---,0.00,VWS V14.00,2013-03-03 03:23:00,
2013-03-02 20:28:00,48.8,26.7,29.90,WSW,239,0.0,3.0,42,0.00,,---,0.00,VWS V14.00,2013-03-03 03:28:00,
2013-03-02 20:33:00,49.6,26.9,29.90,WSW,239,0.0,3.0,41,0.00,,---,0.00,VWS V14.00,2013-03-03 03:33:00,
2013-03-02 20:38:00,49.9,28.3,29.90,WSW,239,0.0,0.0,43,0.00,,---,0.00,VWS V14.00,2013-03-03 03:38:00,
2013-03-02 20:43:00,49.3,26.6,29.90,WSW,239,0.0,3.0,41,0.00,,---,0.00,VWS V14.00,2013-03-03 03:43:00,
2013-03-02 20:49:00,49.5,25.6,29.89,WSW,240,0.0,2.0,39,0.00,,---,0.00,VWS V14.00,2013-03-03 03:49:00,
2013-03-02 20:54:00,49.7,25.8,29.89,WSW,240,0.0,2.0,39,0.00,,---,0.00,VWS V14.00,2013-03-03 03:54:00,
2013-03-02 20:59:00,49.0,26.9,29.89,WSW,241,0.0,1.0,42,0.00,,---,0.00,VWS V14.00,2013-03-03 03:59:00,
2013-03-02 21:04:00,48.1,26.7,29.88,WSW,241,0.0,3.0,43,0.00,,---,0.00,VWS V14.00,2013-03-03 04:04:00,
2013-03-02 21:09:00,47.8,27.0,29.88,WSW,241,0.0,1.0,44,0.00,,---,0.00,VWS V14.00,2013-03-03 04:09:00,
2013-03-02 21:14:00,47.9,27.0,29.88,WSW,241,0.0,3.0,44,0.00,,---,0.00,VWS V14.00,2013-03-03 04:14:00,
2013-03-02 21:19:00,47.9,27.6,29.88,WSW,242,0.0,0.0,45,0.00,,---,0.00,VWS V14.00,2013-03-03 04:19:00,
2013-03-02 21:24:00,47.5,27.2,29.87,WSW,246,0.0,3.0,45,0.00,,---,0.00,VWS V14.00,2013-03-03 04:24:00,
2013-03-02 21:29:00,47.1,27.4,29.88,West,265,2.0,3.0,46,0.00,,---,0.00,VWS V14.00,2013-03-03 04:29:00,
2013-03-02 21:34:00,46.3,27.2,29.88,West,265,0.0,3.0,47,0.00,,---,0.00,VWS V14.00,2013-03-03 04:34:00,
2013-03-02 21:39:00,46.1,27.5,29.87,West,273,1.0,4.0,48,0.00,,---,0.00,VWS V14.00,2013-03-03 04:39:00,
2013-03-02 21:44:00,46.1,27.5,29.87,West,275,3.0,4.0,48,0.00,,---,0.00,VWS V14.00,2013-03-03 04:44:00,
2013-03-02 21:49:00,46.0,27.4,29.87,West,275,0.0,3.0,48,0.00,,---,0.00,VWS V14.00,2013-03-03 04:49:00,
2013-03-02 21:54:00,46.0,27.9,29.87,West,275,0.0,3.0,49,0.00,,---,0.00,VWS V14.00,2013-03-03 04:54:00,
2013-03-02 21:59:00,45.5,27.0,29.87,West,275,0.0,2.0,48,0.00,,---,0.00,VWS V14.00,2013-03-03 04:59:00,
2013-03-02 22:00:00,45.5,27.0,29.87,West,275,0.0,2.0,48,0.00,,---,0.00,VWS V14.00,2013-03-03 05:00:00,
2013-03-02 22:02:00,45.5,27.5,29.87,West,275,0.0,2.0,49,0.00,,---,0.00,VWS V14.00,2013-03-03 05:02:00,
2013-03-02 22:04:00,45.4,27.4,29.87,West,275,0.0,2.0,49,0.00,,---,0.00,VWS V14.00,2013-03-03 05:04:00,
2013-03-02 22:05:00,45.4,27.4,29.87,West,275,0.0,2.0,49,0.00,,---,0.00,VWS V14.00,2013-03-03 05:05:00,
2013-03-02 22:10:00,45.7,27.6,29.86,West,275,0.0,3.0,49,0.00,,---,0.00,VWS V14.00,2013-03-03 05:10:00,
2013-03-02 22:15:00,45.5,27.5,29.86,West,272,0.0,3.0,49,0.00,,---,0.00,VWS V14.00,2013-03-03 05:15:00,
2013-03-02 22:20:00,46.0,26.9,29.86,West,272,0.0,0.0,47,0.00,,---,0.00,VWS V14.00,2013-03-03 05:20:00,
2013-03-02 22:25:00,46.0,27.4,29.85,WNW,285,0.0,2.0,48,0.00,,---,0.00,VWS V14.00,2013-03-03 05:25:00,
2013-03-02 22:30:00,45.5,27.5,29.85,WNW,285,0.0,0.0,49,0.00,,---,0.00,VWS V14.00,2013-03-03 05:30:00,
2013-03-02 22:35:00,45.1,26.6,29.85,WNW,285,0.0,2.0,48,0.00,,---,0.00,VWS V14.00,2013-03-03 05:35:00,
2013-03-02 22:40:00,45.2,27.2,29.84,WNW,285,0.0,0.0,49,0.00,,---,0.00,VWS V14.00,2013-03-03 05:40:00,
2013-03-02 22:45:00,45.4,26.4,29.84,WNW,285,0.0,2.0,47,0.00,,---,0.00,VWS V14.00,2013-03-03 05:45:00,
2013-03-02 22:50:00,45.8,26.7,29.83,WNW,285,0.0,2.0,47,0.00,,---,0.00,VWS V14.00,2013-03-03 05:50:00,
2013-03-02 22:55:00,45.9,26.8,29.83,West,278,1.0,4.0,47,0.00,,---,0.00,VWS V14.00,2013-03-03 05:55:00,
2013-03-02 23:00:00,46.1,27.5,29.83,West,278,0.0,2.0,48,0.00,,---,0.00,VWS V14.00,2013-03-03 06:00:00,
2013-03-02 23:05:00,45.6,26.5,29.82,West,271,3.0,5.0,47,0.00,,---,0.00,VWS V14.00,2013-03-03 06:05:00,
2013-03-02 23:10:00,46.0,27.4,29.82,SW,225,0.0,6.0,48,0.00,,---,0.00,VWS V14.00,2013-03-03 06:10:00,
2013-03-02 23:15:00,45.6,26.5,29.82,West,267,7.0,7.0,47,0.00,,---,0.00,VWS V14.00,2013-03-03 06:15:00,
2013-03-02 23:20:00,47.4,26.0,29.82,West,262,3.0,7.0,43,0.00,,---,0.00,VWS V14.00,2013-03-03 06:20:00,
2013-03-02 23:25:00,48.1,26.1,29.82,West,262,3.0,3.0,42,0.00,,---,0.00,VWS V14.00,2013-03-03 06:25:00,
2013-03-02 23:30:00,48.1,25.5,29.81,West,265,0.0,6.0,41,0.00,,---,0.00,VWS V14.00,2013-03-03 06:30:00,
2013-03-02 23:35:00,48.3,25.7,29.81,SW,236,5.0,5.0,41,0.00,,---,0.00,VWS V14.00,2013-03-03 06:35:00,
2013-03-02 23:40:00,48.7,26.1,29.80,WSW,238,0.0,5.0,41,0.00,,---,0.00,VWS V14.00,2013-03-03 06:40:00,
2013-03-02 23:46:00,48.0,26.6,29.80,WSW,240,2.0,2.0,43,0.00,,---,0.00,VWS V14.00,2013-03-03 06:46:00,
2013-03-02 23:51:00,46.5,25.8,29.79,WSW,253,0.0,2.0,44,0.00,,---,0.00,VWS V14.00,2013-03-03 06:51:00,
2013-03-02 23:56:00,46.2,25.5,29.79,WSW,253,0.0,0.0,44,0.00,,---,0.00,VWS V14.00,2013-03-03 06:56:00,